Location: Windsor
(43.2292°N, 89.3015°W)
Time: 07:02:13
(UTC+00:00)

First-Move - Pass Details

Date: 06 July 2022
Orbit: 572 x 658 km, 97.6° (Epoch: 11 August)

Event Time Altitude Azimuth Distance (km) Brightness Sun altitude
Rises 08:56:06 0° 29° (NNE) 2,974 ? -12.9°
Reaches altitude 10° 08:58:57 10° 48° (NE) 2,068 ? -12.6°
Maximum altitude 09:02:04 18° 92° (E) 1,594 ? -12.2°
Drops below altitude 10° 09:05:11 10° 135° (SE) 2,069 ? -11.8°
Sets 09:08:02 0° 154° (SSE) 2,975 ? -11.5°
